Date_and_time,latitude,longitude,wind_speed,RelWindDirFrom,WindDirFrom,air_pressure,air_temperature,relative_humidity,Temp,platform_speed_wrt_ground,air_pressure_at_mean_sea_level,platform_orientation
2019-08-29 00:00,50.63045,-96.9807766666667,6.0,9.9,217,977.30,19.2,49,18.73,0.0,1002.98,0.0
2019-08-29 00:10,50.63045,-96.9807766666667,5.5,7.2,212,977.29,19.0,50,18.69,0.0,1002.98,0.0
2019-08-29 00:20,50.63045,-96.9807783333333,6.3,9.0,209,977.32,18.8,51,18.66,0.0,1003.03,0.0
2019-08-29 00:30,50.63045,-96.9807783333333,7.3,9.7,201,976.95,18.6,53,18.64,0.0,1002.65,0.0
2019-08-29 00:40,50.6304516666667,-96.98078,6.5,8.7,209,976.93,18.5,53,18.63,0.0,1002.64,0.0
2019-08-29 00:50,50.6304516666667,-96.9807783333333,5.4,6.9,205,976.92,18.4,54,18.64,0.0,1002.64,0.0
2019-08-29 01:00,50.6304433333333,-96.9807583333333,4.9,6.4,195,976.72,18.2,55,18.64,0.0,1002.45,122.3
2019-08-29 01:10,50.63045,-96.9807833333333,6.0,8.5,197,976.63,18.0,56,18.66,0.0,1002.37,122.3
2019-08-29 01:20,50.6304516666667,-96.9807766666667,6.4,8.5,199,976.58,17.9,56,18.68,0.0,1002.32,122.3
2019-08-29 01:30,50.6304533333333,-96.9807766666667,7.6,9.7,203,976.44,17.9,56,18.70,0.0,1002.18,122.3
2019-08-29 01:40,50.6304533333333,-96.9807766666667,8.6,11.6,202,976.29,17.9,57,18.71,0.0,1002.04,122.3
2019-08-29 01:50,50.6304533333333,-96.9807766666667,8.8,11.4,202,976.19,17.8,58,18.69,0.0,1001.96,122.3
2019-08-29 02:00,50.6304533333333,-96.9807766666667,8.3,10.9,202,976.08,17.6,60,18.67,0.0,1001.86,90.0
2019-08-29 02:10,50.6304533333333,-96.9807766666667,8.5,11.9,208,976.07,17.5,60,18.66,0.0,1001.86,90.0
2019-08-29 02:20,50.6304533333333,-96.980775,9.4,12.6,209,976.09,17.5,60,18.65,0.0,1001.89,90.0
2019-08-29 02:30,50.63046,-96.9807766666667,8.9,11.9,215,976.09,17.4,60,18.66,0.0,1001.90,90.0
2019-08-29 02:40,50.630455,-96.9807783333333,8.5,11.4,214,975.94,17.3,60,18.66,0.0,1001.76,90.0
2019-08-29 02:50,50.6304516666667,-96.9807716666667,8.5,12.4,215,975.76,17.1,60,18.68,0.0,1001.60,90.0
2019-08-29 03:00,50.6304616666667,-96.9807716666667,7.9,11.5,214,975.60,17.0,60,18.68,0.0,1001.44,360.0
2019-08-29 03:10,50.6304633333333,-96.9807766666667,7.0,11.6,215,975.48,16.8,62,18.68,0.0,1001.33,360.0
2019-08-29 03:20,50.6304616666667,-96.9807783333333,6.3,9.3,215,975.28,16.6,63,18.68,0.0,1001.14,360.0
2019-08-29 03:30,50.63046,-96.9807766666667,6.8,9.8,212,975.26,16.3,65,18.68,0.0,1001.13,360.0
2019-08-29 03:40,50.6304566666667,-96.980775,6.3,8.4,216,975.15,16.0,67,18.67,0.0,1001.03,360.0
2019-08-29 03:50,50.6304566666667,-96.980775,5.6,7.6,217,975.08,15.9,68,18.65,0.0,1000.97,360.0
2019-08-29 04:00,50.630455,-96.980775,5.9,9.0,219,974.97,15.8,70,18.64,0.0,1000.87,323.4
2019-08-29 04:10,50.630455,-96.9807766666667,6.4,9.2,215,974.91,15.8,70,18.64,0.0,1000.80,323.4
2019-08-29 04:20,50.630455,-96.9807783333333,7.6,10.3,208,974.85,15.8,70,18.62,0.0,1000.75,323.4
2019-08-29 04:30,50.6304566666667,-96.9807783333333,7.8,10.2,201,974.85,15.7,71,18.57,0.0,1000.76,323.4
2019-08-29 04:40,50.6304566666667,-96.980785,7.5,9.9,203,974.87,15.5,72,18.55,0.0,1000.79,323.4
2019-08-29 04:50,50.6304583333333,-96.98078,7.1,11.1,212,974.91,15.3,73,18.53,0.0,1000.86,323.4
2019-08-29 05:00,50.6304516666667,-96.980785,7.7,11.5,215,974.89,15.0,75,18.52,0.0,1000.86,270.0
2019-08-29 05:10,50.6304516666667,-96.980785,9.1,13.4,223,975.06,15.1,73,18.52,0.0,1001.03,270.0
2019-08-29 05:20,50.630455,-96.9807833333333,10.5,15.8,245,975.05,15.8,69,18.49,0.0,1001.02,270.0
2019-08-29 05:30,50.630455,-96.980785,12.9,23.6,261,974.95,16.5,62,18.46,0.0,1000.89,270.0
2019-08-29 05:40,50.63047,-96.9808416666667,11.6,21.4,261,975.12,16.3,65,18.46,0.0,1001.07,270.0
2019-08-29 05:50,50.6304583333333,-96.980795,7.9,13.6,282,975.24,15.4,74,18.47,0.0,1001.24,270.0
2019-08-29 06:00,50.6304516666667,-96.9807733333333,6.3,12.4,264,975.30,14.9,76,18.47,0.0,1001.32,360.0
2019-08-29 06:10,50.63045,-96.9807783333333,7.5,10.2,229,975.08,14.6,78,18.45,0.0,1001.12,360.0
2019-08-29 06:20,50.6304516666667,-96.9807816666667,8.8,12.0,219,974.67,14.4,76,18.44,0.0,1000.71,360.0
2019-08-29 06:30,50.63045,-96.9807766666667,8.3,13.2,216,974.37,14.2,77,18.43,0.0,1000.42,360.0
2019-08-29 06:40,50.630415,-96.9808,7.2,10.4,222,974.32,14.0,78,18.42,0.0,1000.39,360.0
2019-08-29 06:50,50.630455,-96.98077,6.9,9.7,228,974.43,13.8,79,18.41,0.0,1000.52,360.0
2019-08-29 07:00,50.6304583333333,-96.9807716666667,7.1,10.9,233,974.63,13.6,80,18.42,0.0,1000.73,360.0
2019-08-29 07:10,50.6304583333333,-96.9807883333333,7.7,13.1,238,974.88,13.5,79,18.40,0.0,1000.96,360.0
2019-08-29 07:20,50.6304566666667,-96.9807816666667,7.2,10.2,238,975.05,13.3,80,18.39,0.0,1001.11,360.0
2019-08-29 07:30,50.6304583333333,-96.9807816666667,6.3,10.6,245,975.23,13.1,80,18.40,0.0,1001.32,360.0
2019-08-29 07:40,50.6304316666667,-96.9807616666667,6.0,9.3,253,975.26,13.1,80,18.40,0.0,1001.38,360.0
2019-08-29 07:50,50.6304533333333,-96.980775,7.1,12.0,254,975.25,13.2,79,18.38,0.0,1001.39,360.0
2019-08-29 08:00,50.6304583333333,-96.9807683333333,7.9,14.3,259,975.23,13.5,77,18.35,0.0,1001.38,68.5
2019-08-29 08:10,50.6304616666667,-96.98082,9.7,16.0,260,975.19,13.6,77,18.34,0.0,1001.34,68.5
2019-08-29 08:20,50.630445,-96.9807916666667,8.2,13.9,259,975.28,13.6,78,18.32,0.0,1001.45,68.5
2019-08-29 08:30,50.6304483333333,-96.980785,7.9,14.1,267,975.31,13.4,80,18.31,0.0,1001.50,68.5
2019-08-29 08:40,50.630445,-96.980775,7.6,14.9,270,975.35,13.3,81,18.31,0.0,1001.55,68.5
2019-08-29 08:50,50.6304433333333,-96.9807783333333,8.0,13.4,275,975.50,13.4,82,18.30,0.0,1001.70,68.5
2019-08-29 09:00,50.6304466666667,-96.9807783333333,9.0,15.9,284,975.53,13.5,83,18.29,0.0,1001.73,234.7
2019-08-29 09:10,50.6304466666667,-96.9807766666667,10.6,19.0,287,975.61,13.5,83,18.27,0.0,1001.83,234.7
2019-08-29 09:20,50.6304483333333,-96.9807733333333,10.4,15.8,292,975.76,13.4,84,18.27,0.0,1001.99,234.7
2019-08-29 09:30,50.6304483333333,-96.9807733333333,8.2,14.6,296,975.91,13.3,86,18.26,0.0,1002.15,234.7
2019-08-29 09:40,50.6304483333333,-96.98077,9.9,14.6,298,975.99,13.2,87,18.26,0.0,1002.23,234.7
2019-08-29 09:50,50.6304483333333,-96.9807666666667,8.4,14.3,303,976.16,13.1,90,18.26,0.0,1002.41,234.7
2019-08-29 10:00,50.6304533333333,-96.980775,9.3,15.2,301,976.29,13.0,92,18.26,0.0,1002.54,360.0
2019-08-29 10:10,50.6304566666667,-96.9807783333333,8.7,13.1,298,976.47,12.8,94,18.26,0.0,1002.73,360.0
2019-08-29 10:20,50.630455,-96.9807783333333,8.4,14.1,293,976.56,12.7,95,18.26,0.0,1002.83,360.0
2019-08-29 10:30,50.6304533333333,-96.9807816666667,7.3,12.0,288,976.57,12.7,96,18.25,0.0,1002.85,360.0
2019-08-29 10:40,50.6304533333333,-96.98078,7.6,11.9,292,976.76,12.6,96,18.24,0.0,1003.05,360.0
2019-08-29 10:50,50.6304533333333,-96.9807766666667,8.2,11.9,291,976.96,12.6,97,18.24,0.0,1003.25,360.0
2019-08-29 11:00,50.6304533333333,-96.980775,9.1,14.6,290,977.15,12.5,97,18.25,0.0,1003.44,192.6
2019-08-29 11:10,50.6304533333333,-96.980775,7.5,12.5,287,977.42,12.4,97,18.24,0.0,1003.74,192.6
2019-08-29 11:20,50.6304783333333,-96.9807816666667,7.2,12.2,285,977.68,12.3,98,18.22,0.0,1004.01,192.6
2019-08-29 11:30,50.6304466666667,-96.9807566666667,7.0,12.0,286,977.92,12.2,98,18.18,0.0,1004.26,192.6
2019-08-29 11:40,50.6304516666667,-96.980765,7.1,11.9,287,978.09,12.2,98,18.17,0.0,1004.44,192.6
2019-08-29 11:50,50.6304516666667,-96.9807683333333,8.4,15.1,287,978.33,12.1,98,18.16,0.0,1004.70,192.6
2019-08-29 12:00,50.63045,-96.98077,7.9,13.4,291,978.54,12.1,97,18.16,0.0,1004.93,66.4
2019-08-29 12:10,50.6304516666667,-96.98077,7.6,13.2,291,978.73,12.1,96,18.15,0.0,1005.12,66.4
2019-08-29 12:20,50.6304616666667,-96.9807683333333,8.2,13.9,288,978.93,12.1,95,18.15,0.0,1005.32,66.4
2019-08-29 12:30,50.6304583333333,-96.9807733333333,7.5,11.9,290,979.13,12.1,94,18.14,0.0,1005.54,66.4
2019-08-29 12:40,50.630455,-96.98077,8.2,15.5,290,979.31,12.2,93,18.12,0.0,1005.72,66.4
2019-08-29 12:50,50.630455,-96.98077,8.6,16.4,288,979.49,12.2,90,18.11,0.0,1005.91,66.4
2019-08-29 13:00,50.630455,-96.98077,9.3,19.7,289,979.64,12.3,87,18.10,0.0,1006.06,90.0
2019-08-29 13:10,50.630455,-96.9807716666667,8.7,16.5,291,979.81,12.4,86,18.09,0.0,1006.24,90.0
2019-08-29 13:20,50.630455,-96.9807733333333,7.9,14.9,287,980.10,12.6,84,18.09,0.0,1006.53,90.0
2019-08-29 13:30,50.6304266666667,-96.9807883333333,11.6,19.3,291,980.11,12.7,80,18.09,0.0,1006.54,90.0
2019-08-29 13:40,50.6304483333333,-96.9807733333333,11.8,20.4,292,980.18,12.8,76,18.08,0.0,1006.61,90.0
2019-08-29 13:50,50.63045,-96.98081,10.6,17.6,294,980.33,12.9,74,18.08,0.0,1006.75,90.0
2019-08-29 14:00,50.6304383333333,-96.9807533333333,12.5,21.3,295,980.30,12.9,71,18.05,0.0,1006.72,124.8
2019-08-29 14:10,50.630445,-96.9807666666667,12.4,21.2,296,980.43,13.2,68,18.03,0.0,1006.84,124.8
2019-08-29 14:20,50.6304433333333,-96.9807666666667,14.2,22.9,291,980.50,13.4,65,18.01,0.0,1006.90,124.8
2019-08-29 14:30,50.630445,-96.98077,13.7,22.4,298,980.64,13.5,64,18.00,0.0,1007.04,124.8
2019-08-29 14:40,50.6304466666667,-96.98077,14.9,23.1,297,980.71,13.7,61,18.01,0.0,1007.11,124.8
2019-08-29 14:50,50.6304483333333,-96.9807716666667,12.8,21.2,299,981.03,13.8,61,18.02,0.0,1007.43,124.8
2019-08-29 15:00,50.6304466666667,-96.9807783333333,12.7,23.2,293,981.12,14.0,59,18.03,0.0,1007.50,246.4
2019-08-29 15:10,50.6304466666667,-96.9807766666667,12.3,20.1,293,981.26,14.2,57,18.03,0.0,1007.62,246.4
2019-08-29 15:20,50.630445,-96.9807666666667,10.7,18.5,297,981.36,14.5,55,18.02,0.0,1007.71,246.4
2019-08-29 15:30,50.6304416666667,-96.980765,12.8,22.3,299,981.40,14.7,52,18.02,0.0,1007.74,246.4
2019-08-29 15:40,50.6304433333333,-96.9807716666667,13.2,20.9,289,981.53,14.6,51,18.02,0.0,1007.87,246.4
2019-08-29 15:50,50.6304416666667,-96.9807766666667,13.7,23.5,284,981.61,14.8,47,18.01,0.0,1007.94,246.4
2019-08-29 16:00,50.6304416666667,-96.9807766666667,15.4,26.4,300,981.54,15.0,45,18.01,0.0,1007.85,194.5
2019-08-29 16:10,50.630445,-96.98078,17.2,27.8,293,981.55,14.9,45,18.01,0.0,1007.86,194.5
2019-08-29 16:20,50.630445,-96.98078,15.7,24.9,291,981.72,15.1,45,18.01,0.0,1008.01,194.5
2019-08-29 16:30,50.630445,-96.9807816666667,14.6,25.6,287,981.86,15.5,44,18.01,0.0,1008.14,194.5
2019-08-29 16:40,50.630445,-96.9807816666667,13.4,23.3,288,981.95,15.8,43,18.02,0.0,1008.20,194.5
2019-08-29 16:50,50.630445,-96.9807833333333,14.9,26.2,298,981.88,15.9,41,18.03,0.0,1008.12,194.5
2019-08-29 17:00,50.6304466666667,-96.9807866666667,15.4,26.8,288,981.95,16.0,40,18.04,0.0,1008.18,281.6
2019-08-29 17:10,50.63044,-96.980785,15.1,27.0,295,981.92,16.3,37,18.07,0.0,1008.12,281.6
2019-08-29 17:20,50.6304383333333,-96.9807883333333,14.5,24.7,297,981.96,16.5,36,18.08,0.0,1008.15,281.6
2019-08-29 17:30,50.630465,-96.980775,12.9,25.4,293,982.11,16.8,35,18.09,0.0,1008.29,281.6
2019-08-29 17:40,50.630435,-96.980775,16.2,24.7,291,981.90,16.8,36,18.10,0.0,1008.07,281.6
2019-08-29 17:50,50.630465,-96.98079,14.9,24.7,295,981.98,17.0,35,18.11,0.0,1008.13,281.6
2019-08-29 18:00,50.6304466666667,-96.9807766666667,14.1,25.6,288,982.03,17.2,34,18.11,0.0,1008.18,90.0
2019-08-29 18:10,50.6304466666667,-96.98078,15.1,24.8,284,982.01,17.2,34,18.11,0.0,1008.14,90.0
2019-08-29 18:20,50.6304483333333,-96.9807833333333,14.4,22.0,273,982.15,17.3,34,18.12,0.0,1008.26,90.0
2019-08-29 18:30,50.63044,-96.9808133333333,14.4,23.5,295,982.13,17.5,35,18.16,0.0,1008.22,90.0
2019-08-29 18:40,50.6304466666667,-96.9807766666667,11.6,19.8,293,982.41,17.7,34,18.19,0.0,1008.49,90.0
2019-08-29 18:50,50.6304283333333,-96.9807766666667,12.4,22.7,295,982.42,17.9,34,18.22,0.0,1008.49,90.0
2019-08-29 19:00,50.6304483333333,-96.9807816666667,13.6,25.1,297,982.43,18.1,33,18.25,0.0,1008.49,305.3
2019-08-29 19:10,50.63047,-96.9807683333333,15.1,23.2,286,982.46,17.8,34,18.27,0.0,1008.51,305.3
2019-08-29 19:20,50.6304533333333,-96.9807866666667,13.5,24.4,284,982.60,17.9,34,18.27,0.0,1008.64,305.3
2019-08-29 19:30,50.63045,-96.9807816666667,13.0,25.8,288,982.72,18.0,34,18.28,0.0,1008.76,305.3
2019-08-29 19:40,50.6304483333333,-96.9807816666667,14.2,26.7,297,982.66,18.2,33,18.32,0.0,1008.68,305.3
2019-08-29 19:50,50.6304483333333,-96.98078,13.8,25.2,290,982.78,18.1,34,18.34,0.0,1008.80,305.3
2019-08-29 20:00,50.63045,-96.980775,13.6,24.6,287,982.87,18.2,34,18.34,0.0,1008.89,66.4
2019-08-29 20:10,50.630445,-96.98077,12.7,27.3,287,982.95,18.3,33,18.36,0.0,1008.96,66.4
2019-08-29 20:20,50.6304416666667,-96.9807683333333,14.7,23.5,292,982.90,18.3,33,18.38,0.0,1008.90,66.4
2019-08-29 20:30,50.6304566666667,-96.9807816666667,13.8,22.8,283,983.03,18.2,34,18.37,0.0,1009.03,66.4
2019-08-29 20:40,50.63045,-96.98077,15.6,26.2,287,983.06,18.4,33,18.34,0.0,1009.04,66.4
2019-08-29 20:50,50.630455,-96.9807733333333,14.8,23.4,280,983.23,18.3,33,18.33,0.0,1009.21,66.4
2019-08-29 21:00,50.6304416666667,-96.98077,13.0,23.7,287,983.31,18.7,32,18.32,0.0,1009.29,167.4
2019-08-29 21:10,50.6304416666667,-96.9807733333333,14.0,22.7,283,983.43,18.6,32,18.34,0.0,1009.42,167.4
2019-08-29 21:20,50.6304383333333,-96.980765,12.6,22.4,282,983.55,18.7,31,18.37,0.0,1009.53,167.4
2019-08-29 21:30,50.6304383333333,-96.9807683333333,14.1,24.6,273,983.66,18.7,32,18.39,0.0,1009.63,167.4
2019-08-29 21:40,50.630435,-96.98078,13.8,23.0,278,983.62,18.8,32,18.40,0.0,1009.59,167.4
2019-08-29 21:50,50.6304433333333,-96.9807783333333,13.1,24.4,284,983.69,18.7,32,18.41,0.0,1009.66,167.4
2019-08-29 22:00,50.63042,-96.9807783333333,12.7,22.1,278,983.81,18.8,31,18.41,0.0,1009.77,170.2
2019-08-29 22:10,50.6304383333333,-96.9807783333333,11.5,22.1,300,983.88,19.0,31,18.43,0.0,1009.84,170.2
2019-08-29 22:20,50.6304383333333,-96.980785,12.7,21.2,277,984.00,18.8,31,18.43,0.0,1009.97,170.2
2019-08-29 22:30,50.63044,-96.9807816666667,14.3,23.2,285,984.00,18.7,32,18.41,0.0,1009.97,170.2
2019-08-29 22:40,50.63044,-96.98078,15.1,23.5,295,984.13,18.6,32,18.38,0.0,1010.11,170.2
2019-08-29 22:50,50.6304416666667,-96.98078,14.1,21.5,292,984.27,18.5,33,18.38,0.0,1010.24,170.2
2019-08-29 23:00,50.6304433333333,-96.98078,12.0,22.4,281,984.50,18.6,33,18.41,0.0,1010.47,192.6
2019-08-29 23:10,50.630445,-96.9807783333333,12.4,22.1,287,984.55,18.6,33,18.40,0.0,1010.53,192.6
2019-08-29 23:20,50.6304433333333,-96.9807783333333,13.3,24.1,285,984.64,18.5,33,18.40,0.0,1010.62,192.6
2019-08-29 23:30,50.6304466666667,-96.9807733333333,12.8,23.1,288,984.74,18.4,33,18.40,0.0,1010.72,192.6
